Regional Weather Roundup
Issued by NWS

Home | Current Version | Previous Version | Graphics & Text | Print | Product List | Glossary On
Versions: 1 2 3 4 5 6 7 8 9 10 11 12 13 14 15 16 17 18 19 20 21 22 23 24 25 26 27 28 29 30 31 32 33 34 35 36 37 38 39 40 41 42 43 44 45 46 47 48 49 50
000
ASUS43 KTOP 230159
RWRKS

WEATHER ROUNDUP FOR KANSAS
NATIONAL WEATHER SERVICE GOODLAND KS
900 PM CDT WED OCT 22 2014

NOTE:  "FAIR" INDICATES FEW OR NO CLOUDS BELOW 12,000 FEET WITH NO
SIGNIFICANT WEATHER AND/OR OBSTRUCTIONS TO VISIBILITY.

KSZ001>006-013>018-027>032-041>047-230300-
NORTHWEST KANSAS

CITY           SKY/WX    TMP DP  RH WIND       PRES   REMARKS
GOODLAND       PTCLDY    54  45  71 E3        30.10R
HAYS           MOCLDY    61  54  77 S13       30.05S THUNDER
HILL CITY      CLEAR     62  56  80 S6        30.03S
RUSSELL        CLOUDY    63  57  81 S13       30.04R
$$

KSZ061>065-074>080-084>089-230300-
SOUTHWEST KANSAS

CITY           SKY/WX    TMP DP  RH WIND       PRES   REMARKS
DODGE CITY     CLOUDY    61  57  87 S20G26    30.05R
ELKHART          N/A     64  54  70 SE7         N/A
GARDEN CITY    CLOUDY    62  58  86 S12       30.04R
GREAT BEND     CLOUDY    61  54  77 S12       30.06R
LIBERAL        PTCLDY    61  54  77 S12       30.07R
$$

KSZ066>073-081>083-090>101-230300-
SOUTHEAST KANSAS

CITY           SKY/WX    TMP DP  RH WIND       PRES   REMARKS
CHANUTE        CLOUDY    64  59  83 SE7       30.10S
COFFEYVILLE    PTCLDY    64  56  75 S7        30.10S
HUTCHINSON     LGT RAIN  63  59  87 S3        30.07S
NEWTON         CLOUDY    63  54  72 SW8       30.10R
PARSONS        MOCLDY    66  58  75 S5        30.11S
WICHITA INTL   CLOUDY    66  58  75 W3        30.07R
WICHITA JABRA  CLOUDY    68  57  68 W6        30.07R
WINFIELD       CLOUDY    68  59  73 S7        30.09R
$$

KSZ007>012-019>026-033>040-048>060-102>105-230300-
NORTHEAST KANSAS

CITY           SKY/WX    TMP DP  RH WIND       PRES   REMARKS
CONCORDIA      CLOUDY    62  59  90 S12       30.04R
EMPORIA        MOCLDY    65  57  75 S10       30.08R
LAWRENCE       PTCLDY    63  55  75 SE8       30.09S
MANHATTAN      CLOUDY    71  56  58 S7        30.04S
OLATHE IND     PTCLDY    62  54  74 SE10      30.11S
OLATHE EXE     PTCLDY    62  54  74 SE8       30.11S
SALINA         LGT RAIN  64  59  83 S8        30.06S
TOPEKA BILLARD PTCLDY    68  58  70 SE10      30.08R
TOPEKA FORBES  PTCLDY    67  58  72 SE10      30.07S
$$



USA.gov is the U.S. government's official web portal to all federal, state and local government web resources and services.